Find Starlink 38294

NORAD ID: 100319 Int'l Des: 2026-184 Owner: SPXS Country: US Constellation: starlink operational

Aktuelle Ansicht

3D-Globus wird geladen...

About Starlink 38294

Starlink 38294 (NORAD 100319) is a starlink constellation satellite launched Aug 12, 2026 by SPXS of US. with a mass of 575.00 kg.

Nächste Überflüge

Passes for default location (London). Set your location on the main map for personalized predictions.

Höhenverlauf

Loading altitude history...

Zweizeiliger Elementsatz

1 A0319U 26184U 26249.60020027 .00018922 00000-0 34827-3 0 9993
2 A0319 97.2847 114.8180 0001714 80.9932 279.1513 15.49226877 5227
Epoch: 6. Sept. 2026 • Age: 7 hours

Aktueller Status

Höhe 440.7 km
Apogäum / Perigäum N/A
Geschwindigkeit 7.65 km/s
Subsatellitenpunkt -53.16°S, 24.79°W
Startdatum 12. Aug. 2026
Alter 25 days
Typ internet

Technische Details

Klassifizierung Payload
Masse 575.00 kg
Trockenmasse 530.00 kg
Gesamtmasse 575.00 kg
Länge 0.30 m
Durchmesser 4.10 m
Spannweite 29.00 m
Form Box + pan
Hersteller SPXS
Bus-Typ Starlink V2MO
Phasenstatus In Orbit
Besitzer/Staat SPXS/US

Most Searched